Lid_Strength_Index
5 5 5 6 6 5 4 3 3 3 2 2 3 3 4 5 5 6 7 8 8 9
5 5 6 6 5 5 4 4 3 3 2 2 3 3 4 5 6 6 7 8 8 9
4 5 6 6 6 5 5 4 4 3 3 3 3 3 5 6 6 7 7 8 9 9
4 4 5 6 7 6 5 5 4 3 3 3 4 5 5 6 6 7 8 8 8 9
3 4 5 7 7 6 6 5 3 3 4 5 4 5 6 6 6 8 9 7 8 8
3 5 6 7 6 6 6 5 4 3 5 5 5 5 6 6 7 8 8 8 8 8
2 3 6 5 6 6 6 5 3 5 5 5 5 5 6 6 7 8 7 7 7 8
2 1 3 5 6 6 5 4 3 5 4 5 6 5 6 6 7 8 7 8 8 9
2 2 4 5 6 5 5 4 3 4 5 6 6 8 7 7 8 8 8 10 9 8
2 3 5 5 6 5 4 4 4 5 5 6 6 8 8 8 7 8 8 9 8 9
2 3 5 5 5 4 3 4 5 6 6 7 7 9 9 8 8 7 8 8 9 10
2 4 4 4 4 4 5 6 6 7 8 8 9 10 9 8 8 8 8 8 9 10
3 4 4 4 4 5 6 7 7 9 8 9 9 10 10 8 8 8 8 8 9 8
4 4 4 3 4 6 7 8 9 10 10 9 9 9 9 9 7 8 9 9 10 11